HAIYANG 1D

Satellite information

Favourite Embed

Satellite Type and Status

PAYLOADIN ORBIT

Key statistics

Satellite HAIYANG 1D at a glance.

Uptime

1853

Days in orbit

Revolutions

≈ 14.3

Per day

Orbit

SSO

Sun Synchronous Orbit

Inclination

98.6

Latest

Satellite identification and parameters

Extended collection of information and parameters for HAIYANG 1D.

Object identification

Identified? True

Debris? False

Object name: HAIYANG 1D

International designator: 2020-036A

Object number (NORAD): 45721

Object ID (CCSDS): 45721

Country: PEOPLES REPUBLIC OF CHINA (PRC)

Current information (Y/N): Y

RCS size: LARGE

Orbital parameters

Period: 100.41 minutes

Inclination: 98.6303 deg

SMA: 7156.132 km

Apoapsis: 779.827 km

Periapsis: 776.166 km

RAAN: 131.7618 deg

Eccentricy: 0.0002558

Argument of periapsis: 67.7515 deg

Mean anomaly: 292.3941 deg

Mean motion: 14.34119223 rev/day

Mean motion (dot): 0.00000105 rev/day2

B* drag term: 0.000053325 1/REarth

Two-line elements (TLE)

Creation date: July 5, 2025, 11:06 p.m.

Reference frame: TEME

Reference center: EARTH

Epoch: July 5, 2025, 8:47 p.m. UTC

TLE line 0: 0 HAIYANG 1D

TLE line 1: 1 45721U 20036A 25186.86626470 .00000105 00000-0 53325-4 0 9999

TLE line 2: 2 45721 98.6303 131.7618 0002558 67.7515 292.3941 14.34119223265337

Live tracking on map

Real-time ground track for satellite HAIYANG 1D.

In-orbit conjunctions

There are no conjunctions computed for HAIYANG 1D, at the moment. Check back to stay up to date, as we update our databases every day.

Go to all conjunctions

Associated space launch

Haiyang is a series of Chinese marine remote sensing satellites. Haiyang 1C is the follow-up of the Haiyang 1A and 1B satellites. It is intended for ocean monitoring and will be providing data on the temperature and dynamics of coastal waters and global oceans in China.

HAIYANG 1D was lifted into orbit during the mission ‘Long March 2C | Haiyang 1D’, on board a Long March 2 space rocket.

The launch took place on June 10, 2020, 6:31 p.m. from Launch Complex 9.

For more information about the launch, click the button.

Launch to space Long March 2C | Haiyang 1D
Long March 2C | Haiyang 1D

Agency: N/A

Status: Launch Successful

Launch date: June 10, 2020, 6:31 p.m. UTC

Rocket: Long March 2

Launch pad: Launch Complex 9

Location: Taiyuan Satellite Launch Center, People's Republic of China

...

Latest news about this satellite

News about space launch
Long March 2C lofts Haiyang-1D

News about space launch
China launches ocean monitoring satellite

News about space launch
China launches Haiyang-1D ocean observation satellite


Newsletter sign-up

Weekly statistics, charts and insights to help you stay on top of the space industry.